Regional Weather Roundup
Issued by NWS

Home | Current Version | Previous Version | Text Only | Print | Product List | Glossary Off
Versions: 1 2 3 4 5 6 7 8 9 10 11 12 13 14 15 16 17 18 19 20 21 22 23 24 25 26 27 28 29 30 31 32 33 34 35 36 37 38 39 40 41 42 43 44 45 46 47 48 49 50

000
ASUS43 KOAX 301110
RWRNE

WEATHER ROUNDUP FOR NEBRASKA
NATIONAL WEATHER SERVICE OMAHA NE
600 AM CDT TUE JUN 30 2015

NOTES: SATELLITE DATA IS BEING USED TO AUGMENT CLOUD COVER ABOVE
       12000 FEET.
       "FAIR" INDICATES FEW OR NO CLOUDS BELOW 12,000 FEET WITH NO
       SIGNIFICANT WEATHER AND/OR OBSTRUCTIONS TO VISIBILITY.

  * THESE STATIONS DO NOT REPORT WEATHER SUCH AS RAIN...SNOW OR FOG.

NEZ001>004-019>022-054>056-301200-
NEBRASKA PANHANDLE

CITY           SKY/WX    TMP DP  RH WIND       PRES   REMARKS
SCOTTSBLUFF    PTCLDY    58  54  86 NW6       30.06F
ALLIANCE       MOCLDY    54  52  93 CALM      30.05F
CHADRON        PTCLDY    59  55  87 CALM      30.00F
KIMBALL          N/A    N/A N/A N/A MISG        N/A
SIDNEY         PTCLDY    58  56  93 NW9       30.10S
$$

NEZ057>060-069>072-079>082-301200-
SOUTHWEST NEBRASKA

CITY           SKY/WX    TMP DP  RH WIND       PRES   REMARKS
NORTH PLATTE   CLEAR     60  57  89 CALM      30.02R
IMPERIAL       CLEAR     61  56  83 SW3       30.03S
LEXINGTON      CLEAR     61  59  91 CALM      29.99S
MCCOOK         CLEAR     62  58  86 W8        30.00S
OGALLALA       PTCLDY    59  57  91 CALM      30.04S
$$

NEZ005>010-023>029-035>040-094-301200-
NORTH CENTRAL NEBRASKA

CITY           SKY/WX    TMP DP  RH WIND       PRES   REMARKS
VALENTINE      PTCLDY    64  59  83 W6        29.96S
AINSWORTH      CLEAR     66  57  72 SW9       29.97S
BROKEN BOW     CLEAR     62  58  86 CALM      29.99S
O`NEILL        MOCLDY    66  62  85 NE6       29.98R
ORD            PTCLDY    60  57  89 CALM      29.96S
THEDFORD       PTCLDY    61  58  90 CALM      30.02S
$$

NEZ041-046>049-061>064-073>077-083>087-301200-
SOUTH CENTRAL NEBRASKA

CITY           SKY/WX    TMP DP  RH WIND       PRES   REMARKS
GRAND ISLAND   PTCLDY    64  59  83 W3        29.97S
AURORA         CLEAR     64  62  93 SW3       29.96S
HASTINGS       CLEAR     67  59  75 SW5       29.97S
HEBRON         CLEAR     63  59  88 CALM      29.97R
HOLDREGE       PTCLDY    67  57  71 CALM      29.99S
KEARNEY *      CLEAR     66  61  82 CALM      29.98S
YORK           CLEAR     64  61  88 CALM      29.96S
$$

NEZ011>018-030>034-042>045-301200-
NORTHEAST NEBRASKA

CITY           SKY/WX    TMP DP  RH WIND       PRES   REMARKS
NORFOLK        MOCLDY    65  62  90 CALM      29.93S FOG
ALBION         PTCLDY    63  58  82 CALM      29.95S
BLAIR          PTCLDY    67  61  83 W3        29.92R
COLUMBUS *     CLEAR     63  55  77 CALM      29.95S
FREMONT        MOCLDY    65  62  89 W5        29.92S
TEKAMAH        PTCLDY    65  62  90 E6        29.91R FOG
WAYNE          MOCLDY    63  61  93 N5        29.96R
$$

NEZ050>053-065>068-078-088>093-301200-
SOUTHEAST NEBRASKA

CITY           SKY/WX    TMP DP  RH WIND       PRES   REMARKS
LINCOLN        CLEAR     65  61  87 CALM      29.94S FOG
OMAHA EPPLEY   CLOUDY    67  63  87 E3        29.91R
BEATRICE       CLEAR     64  63  97 CALM      29.95S FOG
FALLS CITY     CLOUDY    66  62  87 W3        29.92R
NEBRASKA CITY  CLEAR     66  59  76 W7        29.92S
PLATTSMOUTH    CLEAR     67  59  76 W3        29.92R
$$

NEZ044-045-051>053-067-301200-
OMAHA AREA

CITY           SKY/WX    TMP DP  RH WIND       PRES   REMARKS
OMAHA EPPLEY   CLOUDY    67  63  87 E3        29.91R
BLAIR          PTCLDY    67  61  83 W3        29.92R
FREMONT        MOCLDY    65  62  89 W5        29.92S
MILLARD        PTCLDY    65  64  96 CALM      29.91S FOG
OFFUTT AFB     MOCLDY    61  61  98 CALM      29.91R FOG
PLATTSMOUTH    CLEAR     67  59  76 W3        29.92R
WAHOO          CLOUDY    70  61  73 CALM      29.93R
$$



USA.gov is the U.S. government's official web portal to all federal, state and local government web resources and services.